Zurück zum Katalog

DELTA 1 DEB

AktivSSO
NORAD 13538·DEBRIS·🇺🇸 United States

Gestartet Jul 29, 1976 von Vandenberg Space Force Base

Loading…

Nächste Überflüge (nächste 24 Stunden)

TLE

AktuellSource: Space-Track

Epoche: Sep 13, 2026, 22:34 UTC

1 13538U 76077EL  26256.94096860  .00000008  00000-0  47072-3 0  9991
2 13538 102.0363 239.7512 0107446 294.9381  87.8476 12.22144251 56931

Verfolge DELTA 1 DEB in Echtzeit mit AllMySat

Download on the App Store